Weather observations for the past three days for
Oxford, Waterbury-Oxford Airport
Imperial (Metric)
Date Time (edt) Wind (mph) Vis. (mi.) Weather Sky Cond. Temperature (ºF) Relative Humidity Wind Chill (°F) Heat Index (°F) Pressure Precipitation (in)
Air Dwpt 6 hour altimeter (in) sea level (mb) 1 hr 3 hr 6 hr
Max. Min.
20 08:56 W 5 10.00 Fair CLR 75 66 74% 76 30.33 1027.7
20 07:56 W 3 10.00 Fair CLR 72 64.9 72 64.9 79% 30.33 1027.7
20 06:56 Calm 10.00 Fair CLR 69.1 64 84% 30.33 1027.7
20 05:56 Calm 10.00 Fair CLR 66.9 64 91% 30.32 1027.4
20 04:56 Calm 10.00 Fair CLR 66 63 90% 30.32 1027.2
20 03:56 S 3 10.00 Fair CLR 64.9 62.1 90% 30.32 1027.3
20 02:56 S 3 10.00 Fair CLR 66 62.1 87% 30.32 1027.2
20 01:56 SW 3 10.00 Fair CLR 68 61 77 66.9 78% 30.33 1027.4
20 00:56 Calm 10.00 Fair CLR 69.1 61 76% 30.34 1027.8
19 23:56 Calm 10.00 Fair CLR 69.1 61 76% 30.35 1028.2
19 22:56 Calm 10.00 Fair CLR 71.1 61 71% 30.36 1028.6
19 21:56 SW 3 10.00 Fair CLR 72 63 73% 30.36 1028.8
19 20:56 Vrbl 3 10.00 Fair CLR 73.9 66 76% 30.34 1028.3
19 19:56 S 7 10.00 Fair CLR 77 68 88 77 74% 79 30.34 1028.1
19 18:56 S 6 10.00 Fair CLR 80.1 70 71% 83 30.35 1028.3
19 17:56 S 9 10.00 Fair CLR 84 72 67% 90 30.32 1027.3
19 16:56 S 10 10.00 Fair CLR 84.9 73 68% 92 30.33 1027.7
19 15:56 S 13 G 18 10.00 A Few Clouds FEW038 86 72 63% 92 30.32 1027.3
19 14:56 SW 8 10.00 Partly Cloudy SCT036 88 73 61% 96 30.34 1028.0
19 13:56 S 5 10.00 Fair CLR 87.1 72 87.1 68 61% 94 30.34 1027.9
19 12:56 S 9 10.00 Fair CLR 86 71.1 61% 92 30.36 1028.5
19 11:56 SW 6 10.00 Fair CLR 84 70 63% 88 30.36 1028.7
19 10:56 W 6 10.00 Fair CLR 81 69.1 67% 84 30.37 1029.0
19 09:56 Vrbl 5 10.00 Fair CLR 77 66.9 71% 79 30.37 1029.1
19 08:56 SW 5 10.00 Fair CLR 73 64.9 76% 30.37 1029.3
19 07:56 SW 5 10.00 Fair CLR 68 62.1 68 64 81% 30.37 1029.2
19 06:56 Vrbl 5 10.00 Fair CLR 66.9 61 81% 30.36 1029.0
19 05:56 S 5 10.00 Fair CLR 66 60.1 81% 30.35 1028.5
19 04:56 S 5 10.00 Fair CLR 64.9 60.1 84% 30.34 1027.9
19 03:56 Calm 10.00 Fair CLR 66.9 60.1 79% 30.32 1027.4
19 02:56 SW 3 10.00 Fair CLR 66 59 78% 30.32 1027.2
19 01:56 S 3 10.00 Fair CLR 66.9 59 77 66.9 76% 30.31 1027.1
19 00:56 S 5 10.00 Fair CLR 68 57.9 70% 30.31 1026.9
18 23:56 S 5 10.00 Fair CLR 69.1 59 70% 30.31 1027.1
18 22:56 S 5 10.00 Fair CLR 70 62.1 76% 30.31 1027.1
18 21:56 S 5 10.00 Fair CLR 72 64.9 79% 30.3 1026.7
18 20:56 S 7 10.00 Fair CLR 73.9 66 76% 30.28 1026.1
18 19:56 S 8 10.00 Fair CLR 77 69.1 86 77 77% 79 30.27 1025.7
18 18:56 S 10 10.00 Fair CLR 81 71.1 72% 85 30.25 1024.9
18 17:56 SW 8 10.00 Fair CLR 82 71.1 69% 86 30.25 1025.0
18 16:56 S 8 10.00 Fair CLR 84 72 67% 90 30.25 1025.0
18 15:56 S 9 10.00 Fair CLR 84 72 67% 90 30.26 1025.3
18 14:56 S 12 9.00 A Few Clouds FEW030 84.9 72 65% 91 30.26 1025.3
18 13:56 S 12 10.00 A Few Clouds FEW025 84.9 71.1 84.9 71.1 63% 90 30.26 1025.3
18 12:56 S 12 10.00 A Few Clouds FEW028 84.9 72 65% 91 30.27 1025.6
18 11:56 Vrbl 6 10.00 Fair CLR 82.9 71.1 67% 88 30.28 1025.9
18 10:56 Vrbl 6 10.00 Fair CLR 81 71.1 72% 85 30.28 1026.0
18 09:56 Vrbl 6 10.00 Fair CLR 78.1 69.1 74% 80 30.28 1026.0
18 08:56 Vrbl 5 10.00 Fair CLR 75 66.9 76% 76 30.27 1025.8
18 07:56 SW 5 10.00 Fair CLR 71.1 64.9 71.1 64 81% 30.26 1025.4
18 06:56 S 3 10.00 Fair CLR 68 64 87% 30.25 1025.1
18 05:56 SW 5 10.00 Fair CLR 64.9 63 93% 30.23 1024.6
18 04:56 S 5 10.00 Fair CLR 64.9 62.1 90% 30.22 1024.0
18 03:56 SW 3 10.00 Fair CLR 64.9 63 93% 30.2 1023.3
18 02:56 S 5 10.00 Fair CLR 66 63 90% 30.19 1023.0
18 01:56 S 3 10.00 Fair CLR 64.9 62.1 73.9 64.9 90% 30.19 1023.3
18 00:56 SW 3 10.00 Fair CLR 66.9 62.1 84% 30.2 1023.3
17 23:56 S 3 10.00 Fair CLR 66.9 61 81% 30.2 1023.5
17 22:56 S 5 10.00 Fair CLR 68 61 78% 30.21 1023.8
17 21:56 S 5 10.00 Fair CLR 70 61 73% 30.21 1023.7
17 20:56 S 6 10.00 Fair CLR 71.1 61 71% 30.18 1022.8
17 19:56 S 7 10.00 Fair CLR 73.9 61 81 73.9 64% 30.17 1022.3
17 18:56 S 8 10.00 Fair CLR 75.9 61 60% 78 30.16 1021.9
17 17:56 S 13 G 18 10.00 Fair CLR 78.1 63 60% 80 30.14 1021.4
17 16:56 S 13 G 18 10.00 Fair CLR 79 63 58% 81 30.16 1021.8
17 15:56 S 12 10.00 Fair CLR 81 64 57% 83 30.17 1022.3
17 14:56 SW 9 G 16 10.00 Fair CLR 80.1 63 56% 81 30.17 1022.2
17 13:56 S 5 10.00 Fair CLR 79 62.1 79 62.1 56% 80 30.19 1023.1
17 12:56 S 10 G 18 10.00 Fair CLR 78.1 62.1 58% 80 30.18 1022.6
17 11:56 S 8 G 17 10.00 Fair CLR 77 64 64% 79 30.19 1023.2
17 10:56 S 9 G 17 10.00 Fair CLR 73.9 62.1 67% 30.22 1024.1
17 09:56 Vrbl 6 10.00 Overcast FEW008 OVC050 71.1 63 76% 30.23 1024.6
Date Time (edt) Wind (mph) Vis. (mi.) Weather Sky Cond. Air Dwpt Max. Min. Relative Humidity Wind Chill (°F) Heat Index (°F) altimeter (in) sea level (mb) 1 hr 3 hr 6 hr
6 hour
Temperature (ºF) Pressure Precipitation (in)